This is the latest recevied weather packets stored in our database for station/object K5WNG. If no packets are shown the sender has not sent any weather packets the latest 10 day(s).
| Time | Temp. | Humidity | Pressure | Rain* | Wind** | Luminosity | Snow |
|---|---|---|---|---|---|---|---|
| 1777816217 | 17.22° C | 69% | 1022.6 hPa | 0 mm | - | 118 W/m² | - |
| 1777815920 | 16.67° C | 70% | 1022.6 hPa | 0 mm | - | 247 W/m² | - |
| 1777815617 | 16.11° C | 72% | 1022.6 hPa | 0 mm | - | 311 W/m² | - |
| 1777815320 | 15° C | 75% | 1022.5 hPa | 0 mm | - | 294 W/m² | - |
| 1777815017 | 15° C | 78% | 1022.4 hPa | 0 mm | - | 132 W/m² | - |
| 1777814721 | 14.44° C | 78% | 1022.4 hPa | 0 mm | - | 50 W/m² | - |
| 1777814420 | 13.89° C | 80% | 1022.4 hPa | 0 mm | - | 48 W/m² | - |
| 1777814121 | 13.89° C | 81% | 1022.4 hPa | 0 mm | - | 46 W/m² | - |
| 1777813820 | 13.89° C | 80% | 1022.4 hPa | 0 mm | - | 44 W/m² | - |
| 1777813520 | 13.89° C | 80% | 1022.4 hPa | 0 mm | - | 43 W/m² | - |
| 1777813220 | 13.89° C | 79% | 1022.3 hPa | 0 mm | - | 41 W/m² | - |
| 1777812921 | 13.33° C | 80% | 1022.2 hPa | 0 mm | - | 39 W/m² | - |
| 1777812621 | 13.33° C | 81% | 1022.2 hPa | 0 mm | - | 37 W/m² | - |
| 1777812325 | 12.78° C | 81% | 1022.1 hPa | 0 mm | - | 35 W/m² | - |
| 1777812021 | 12.78° C | 82% | 1022.1 hPa | 0 mm | - | 33 W/m² | - |
| 1777811721 | 12.78° C | 82% | 1022 hPa | 0 mm | - | 32 W/m² | - |
| 1777811421 | 12.78° C | 82% | 1022 hPa | 0 mm | - | 29 W/m² | - |
| 1777811129 | 12.22° C | 83% | 1022 hPa | 0 mm | - | 26 W/m² | - |
| 1777810822 | 12.22° C | 83% | 1022 hPa | 0 mm | - | 23 W/m² | - |
| 1777810524 | 12.22° C | 83% | 1022 hPa | 0 mm | - | 20 W/m² | - |
| 1777810225 | 12.22° C | 83% | 1021.9 hPa | 0 mm | - | 16 W/m² | - |
| 1777809922 | 12.22° C | 84% | 1021.8 hPa | 0 mm | - | 12 W/m² | - |
| 1777809622 | 11.67° C | 85% | 1021.8 hPa | 0 mm | - | 9 W/m² | - |
| 1777809322 | 11.67° C | 85% | 1021.7 hPa | 0 mm | - | 6 W/m² | - |
| 1777809024 | 11.67° C | 85% | 1021.6 hPa | 0 mm | - | 4 W/m² | - |
* Rain latest hour (hover to see other rain measurements)
** Current wind speed in m/s (hover to see current wind gust speed)